Weather History for Monroe, MI

Change the Weather History Date:

Saturday, October 13, 2012

  Actual Average Record
Temperature  
Mean Temperature 48 °F -  
Max Temperature 64 °F 63 °F 82 °F (1935)
Min Temperature 32 °F 43 °F 28 °F (1937)
Degree Days  
Heating Degree Days 17    
Moisture  
Dew Point 42 °F    
Average Humidity 79    
Maximum Humidity 100    
Minimum Humidity 58    
Precipitation  
Precipitation 0.00 in - - ()
Sea Level Pressure  
Sea Level Pressure 30.16 in    
Wind  
Wind Speed 4 mph (SSE)    
Max Wind Speed 12 mph    
Max Gust Speed 17 mph    
Visibility 10 miles    
Events Rain    
Averages and records for this station are not official NWS values.
T = Trace of Precipitation, MM = Missing Value Source: NWS Daily Summary

Daily Weather History Graph

Daily Weather History Graph

Search for Another Location

Airport:

Trip Planner

Search our weather history database for the weather conditions in past years. The results will help you decide how hot, cold, wet, or windy it might be!

Date:

Astronomy

Oct. 13, 2012 Rise Set
Actual Time 7:44 AM EDT 6:54 PM EDT
Civil Twilight 7:16 AM EDT 7:22 PM EDT
Nautical Twilight 6:44 AM EDT 7:54 PM EDT
Astronomical Twilight 6:11 AM EDT 8:27 PM EDT
Moon 5:31 AM EDT (10/13) 5:38 PM EDT (10/13)
Length of Visible Light 12h 06m
Length of Day
11h 10m
Waning Crescent, 5% of the Moon is Illuminated
Oct 13
Waning Crescent
Oct 15
New
Oct 21
First Quarter
Oct 29
Full
Nov 6
Last Quarter

Hourly Weather History & Observations

Time (EDT) Temp. Windchill Dew Point Humidity Pressure Visibility Wind Dir Wind Speed Gust Speed Precip Events Conditions
12:12 AM 33.8 °F - 32.0 °F 93% 30.38 in 10.0 mi Calm Calm - N/A   Clear
12:33 AM 33.8 °F - 33.8 °F 100% 30.38 in 10.0 mi Calm Calm - N/A   Clear
12:53 AM 33.8 °F - 32.0 °F 93% 30.37 in 7.0 mi Calm Calm - N/A   Clear
1:13 AM 33.8 °F - 32.0 °F 93% 30.37 in 10.0 mi Calm Calm - N/A   Clear
2:33 AM 33.8 °F - 33.8 °F 100% 30.33 in 10.0 mi Calm Calm - N/A   Clear
2:53 AM 33.8 °F - 30.2 °F 87% 30.34 in 10.0 mi Calm Calm - N/A   Clear
3:14 AM 32.0 °F - 30.2 °F 93% 30.33 in 10.0 mi Calm Calm - N/A   Clear
3:34 AM 37.4 °F 33.8 °F 35.6 °F 93% 30.33 in 10.0 mi SSE 4.6 mph - N/A   Clear
3:54 AM 41.0 °F 38.0 °F 35.6 °F 81% 30.33 in 10.0 mi SSE 4.6 mph - N/A   Clear
4:14 AM 41.0 °F 38.0 °F 35.6 °F 81% 30.34 in 10.0 mi South 4.6 mph - N/A   Clear
4:34 AM 42.8 °F 39.3 °F 35.6 °F 76% 30.31 in 10.0 mi SSE 5.8 mph - N/A   Clear
4:54 AM 42.8 °F 38.0 °F 35.6 °F 76% 30.31 in 10.0 mi SSE 8.1 mph - N/A   Clear
5:14 AM 44.6 °F 39.7 °F 35.6 °F 71% 30.31 in 10.0 mi SSE 9.2 mph - N/A   Clear
5:34 AM 44.6 °F 39.2 °F 35.6 °F 71% 30.31 in 10.0 mi SSE 10.4 mph - N/A   Clear
6:35 AM 42.8 °F 38.6 °F 35.6 °F 76% 30.30 in 10.0 mi South 6.9 mph - N/A   Clear
6:55 AM 42.8 °F 40.1 °F 35.6 °F 76% 30.30 in 10.0 mi SSE 4.6 mph - N/A   Clear
7:15 AM 42.8 °F 39.3 °F 33.8 °F 70% 30.29 in 10.0 mi SSE 5.8 mph - N/A   Clear
7:35 AM 42.8 °F 38.0 °F 33.8 °F 70% 30.28 in 10.0 mi SSE 8.1 mph - N/A   Clear
7:55 AM 42.8 °F 38.0 °F 33.8 °F 70% 30.27 in 10.0 mi SSE 8.1 mph - N/A   Clear
8:15 AM 42.8 °F 38.0 °F 33.8 °F 70% 30.26 in 10.0 mi SSE 8.1 mph - N/A   Clear
8:55 AM 44.6 °F 39.2 °F 35.6 °F 71% 30.26 in 10.0 mi South 10.4 mph - N/A   Clear
9:15 AM 44.6 °F 41.4 °F 35.6 °F 71% 30.26 in 10.0 mi South 5.8 mph - N/A   Clear
9:35 AM 44.6 °F 39.7 °F 35.6 °F 71% 30.25 in 10.0 mi South 9.2 mph - N/A   Scattered Clouds
9:56 AM 44.6 °F 43.1 °F 35.6 °F 71% 30.27 in 10.0 mi South 3.5 mph - N/A   Scattered Clouds
10:51 AM 46.4 °F 45.2 °F 35.6 °F 66% 30.24 in 10.0 mi ESE 3.5 mph - N/A Rain Light Rain
11:11 AM 48.2 °F - 35.6 °F 62% 30.24 in 10.0 mi Calm Calm - N/A   Overcast
12:11 PM 51.8 °F - 37.4 °F 58% 30.19 in 10.0 mi ESE 4.6 mph - N/A   Overcast
12:31 PM 51.8 °F - 37.4 °F 58% 30.18 in 10.0 mi ESE 4.6 mph - N/A   Overcast
12:51 PM 51.8 °F - 39.2 °F 62% 30.17 in 10.0 mi ESE 5.8 mph - N/A   Overcast
1:32 PM 51.8 °F - 41.0 °F 67% 30.14 in 10.0 mi ESE 8.1 mph - N/A   Overcast
1:52 PM 51.8 °F - 42.8 °F 71% 30.12 in 10.0 mi ESE 8.1 mph - N/A   Overcast
2:12 PM 51.8 °F - 42.8 °F 71% 30.11 in 10.0 mi East 8.1 mph - N/A   Overcast
2:32 PM 53.6 °F - 42.8 °F 67% 30.10 in 10.0 mi East 5.8 mph - N/A   Overcast
2:52 PM 53.6 °F - 42.8 °F 67% 30.09 in 10.0 mi East 4.6 mph - N/A   Overcast
3:12 PM 55.4 °F - 44.6 °F 67% 30.07 in 10.0 mi ESE 9.2 mph - N/A   Overcast
3:32 PM 55.4 °F - 44.6 °F 67% 30.05 in 10.0 mi ESE 8.1 mph - N/A   Overcast
3:52 PM 55.4 °F - 46.4 °F 72% 30.03 in 10.0 mi ESE 6.9 mph - N/A   Scattered Clouds
4:33 PM 55.4 °F - 50.0 °F 82% 30.01 in 5.0 mi ESE 6.9 mph - N/A Rain Rain
4:53 PM 55.4 °F - 51.8 °F 88% 30.00 in 10.0 mi ESE 3.5 mph - N/A Rain Light Rain
5:13 PM 55.4 °F - 51.8 °F 88% 29.98 in 7.0 mi ESE 4.6 mph - N/A Rain Rain
5:33 PM 55.4 °F - 51.8 °F 88% 29.98 in 10.0 mi SE 5.8 mph - N/A Rain Light Rain
6:33 PM 57.2 °F - 53.6 °F 88% 29.96 in 10.0 mi South 5.8 mph - N/A   Overcast
6:53 PM 57.2 °F - 53.6 °F 88% 29.94 in 10.0 mi SSE 4.6 mph - N/A Rain Light Rain
7:13 PM 57.2 °F - 53.6 °F 88% 29.93 in 10.0 mi SSE 5.8 mph - N/A   Overcast
7:34 PM 57.2 °F - 55.4 °F 94% 29.92 in 10.0 mi South 5.8 mph - N/A Rain Light Rain
7:54 PM 59.0 °F - 55.4 °F 88% 29.94 in 10.0 mi SSW 5.8 mph - N/A   Overcast
8:34 PM 60.8 °F - 57.2 °F 88% 29.92 in 10.0 mi South 10.4 mph - N/A   Overcast
8:54 PM 60.8 °F - 57.2 °F 88% 29.91 in 10.0 mi South 10.4 mph - N/A   Mostly Cloudy
9:14 PM 62.6 °F - 57.2 °F 82% 29.92 in 10.0 mi SSW 11.5 mph - N/A   Scattered Clouds
10:34 PM 64.4 °F - 59.0 °F 83% 29.91 in 10.0 mi SSW 8.1 mph - N/A   Mostly Cloudy
10:55 PM 64.4 °F - 60.8 °F 88% 29.92 in 10.0 mi WSW 9.2 mph 17.3 mph N/A   Overcast
11:15 PM 64.4 °F - 60.8 °F 88% 29.91 in 10.0 mi SW 9.2 mph - N/A   Overcast
11:55 PM 64.4 °F - 60.8 °F 88% 29.91 in 10.0 mi SSW 4.6 mph - N/A   Overcast